Measurement date,Total daily rainfall,Maximum daily air temperature,Minimum daily air temperature
Date ,Rainfall,Air temperature,Air temperature
Units: Year month day,Units: millimetre,Units: degree Celsius,Units: degree Celsius
2005-01-01,3.6,10.9,1.0
2005-01-02,1.2,8.3,2.3
2005-01-03,0.0,10.3,3.3
2005-01-04,0.8,10.5,7.6
2005-01-05,1.0,8.3,2.1
2005-01-06,0.0,12.9,2.9
2005-01-07,2.6,13.0,4.9
2005-01-08,0.0,7.8,7.1
2005-01-09,0.2,13.4,3.8
2005-01-10,0.0,12.5,6.6
2005-01-11,0.8,12.8,6.3
2005-01-12,0.0,8.2,4.1
2005-01-13,0.0,7.9,1.6
2005-01-14,0.2,7.3,-3.3
2005-01-15,0.0,9.9,-0.7
2005-01-16,0.0,11.2,5.8
2005-01-17,2.4,9.6,5.5
2005-01-18,1.6,6.1,0.1
2005-01-19,0.2,12.1,1.1
2005-01-20,1.6,11.1,4.6
2005-01-21,0.0,7.3,3.5
2005-01-22,0.0,3.0,-4.8
2005-01-23,0.6,5.7,-3.7
2005-01-24,1.0,3.5,0.7
2005-01-25,0.8,4.2,1.4
2005-01-26,2.0,5.9,-1.0
2005-01-27,1.8,7.3,0.9
2005-01-28,2.6,6.7,4.9
2005-01-29,0.0,7.6,4.4
2005-01-30,0.4,8.8,-2.9
2005-01-31,1.2,12.1,-1.6
2005-02-01,0.0,11.0,6.1
2005-02-02,0.2,8.6,1.5
2005-02-03,0.0,11.7,3.9
2005-02-04,0.0,9.6,4.3
2005-02-05,0.6,7.6,5.0
2005-02-06,0.0,7.1,1.5
2005-02-07,0.0,5.4,1.9
2005-02-08,0.0,9.0,-1.6
2005-02-09,2.4,11.2,5.1
2005-02-10,0.2,9.9,6.3
2005-02-11,4.6,11.6,-1.0
2005-02-12,4.2,9.6,0.9
2005-02-13,0.4,7.3,2.6
2005-02-14,0.2,6.3,2.0
2005-02-15,0.4,6.8,1.2
2005-02-16,0.2,6.4,-4.8
2005-02-17,0.4,7.9,-1.0
2005-02-18,0.0,10.3,3.0
2005-02-19,0.0,5.0,0.8
2005-02-20,0.4,5.0,-0.6
2005-02-21,2.0,3.7,0.3
2005-02-22,3.6,4.1,0.0
2005-02-23,5.2,1.4,-1.6
2005-02-24,8.4,1.9,-0.4
2005-02-25,3.6,3.2,0.2
2005-02-26,0.2,6.2,1.1
2005-02-27,0.0,5.0,-0.2
2005-02-28,1.2,3.3,-4.2
2005-03-01,3.2,7.3,-0.5
2005-03-02,0.0,3.8,0.2
2005-03-03,0.6,5.5,-1.0
2005-03-04,0.4,6.8,-2.3
2005-03-05,2.6,5.8,0.7
2005-03-06,0.0,5.5,-0.7
2005-03-07,0.0,7.5,-1.2
2005-03-08,0.0,7.1,4.4
2005-03-09,0.0,8.2,3.8
2005-03-10,0.0,9.7,3.2
2005-03-11,0.0,8.5,4.4
2005-03-12,0.0,8.0,0.8
2005-03-13,0.0,7.0,-2.0
2005-03-14,0.8,8.4,-0.2
2005-03-15,0.0,13.1,3.0
2005-03-16,1.0,14.8,8.1
2005-03-17,0.0,16.7,11.5
2005-03-18,0.0,18.3,10.2
2005-03-19,0.0,11.5,2.1
2005-03-20,0.0,11.1,9.2
2005-03-21,1.4,14.5,4.0
2005-03-22,2.2,14.0,7.7
2005-03-23,0.4,15.9,7.6
2005-03-24,0.0,15.6,7.1
2005-03-25,0.2,15.0,5.3
2005-03-26,5.0,10.5,3.3
2005-03-27,0.2,7.9,6.0
2005-03-28,0.0,9.6,6.1
2005-03-29,3.6,9.4,2.1
2005-03-30,0.8,7.9,5.3
2005-03-31,0.0,11.6,5.1
2005-04-01,0.0,11.0,6.6
2005-04-02,0.2,17.5,1.8
2005-04-03,0.0,16.0,-0.4
2005-04-04,0.0,13.1,7.5
2005-04-05,3.6,11.5,3.2
2005-04-06,3.2,13.0,5.9
2005-04-07,1.0,11.8,3.4
2005-04-08,0.2,7.5,2.4
2005-04-09,0.0,11.7,-0.7
2005-04-10,0.0,16.1,6.9
2005-04-11,0.0,13.6,1.8
2005-04-12,0.0,14.3,6.3
2005-04-13,2.4,10.6,5.5
2005-04-14,0.2,12.5,5.4
2005-04-15,10.4,7.3,1.7
2005-04-16,0.0,9.8,1.9
2005-04-17,6.2,13.4,-1.7
2005-04-18,0.0,11.8,7.0
2005-04-19,9.4,13.2,-1.2
2005-04-20,0.2,7.7,4.8
2005-04-21,0.0,14.4,4.0
2005-04-22,0.2,15.4,-2.3
2005-04-23,0.0,14.0,1.6
2005-04-24,0.0,15.2,4.4
2005-04-25,2.8,17.0,5.2
2005-04-26,4.8,13.7,7.1
2005-04-27,0.2,15.1,5.5
2005-04-28,0.0,15.8,6.7
2005-04-29,4.0,17.5,6.4
2005-04-30,0.8,19.1,8.2
2005-05-01,0.0,20.1,10.2
2005-05-02,2.2,19.8,9.7
2005-05-03,2.0,17.2,11.0
2005-05-04,0.2,13.3,8.1
2005-05-05,0.0,16.3,2.9
2005-05-06,5.6,14.2,7.5
2005-05-07,0.0,13.0,6.8
2005-05-08,1.6,13.4,5.0
2005-05-09,1.2,12.5,2.5
2005-05-10,0.0,11.6,0.9
2005-05-11,0.0,13.8,-1.1
2005-05-12,0.0,14.2,-1.6
2005-05-13,0.0,13.4,3.9
2005-05-14,0.0,13.6,6.1
2005-05-15,0.0,17.7,2.1
2005-05-16,2.0,10.2,9.7
2005-05-17,0.0,12.7,-0.8
2005-05-18,0.2,14.9,0.9
2005-05-19,0.0,18.1,8.1
2005-05-20,0.6,19.2,12.1
2005-05-21,5.6,14.6,5.3
2005-05-22,0.4,15.7,7.3
2005-05-23,1.0,15.5,5.9
2005-05-24,0.2,16.7,9.0
2005-05-25,0.0,21.3,10.5
2005-05-26,0.0,21.4,12.9
2005-05-27,0.0,23.5,10.2
2005-05-28,0.0,18.6,10.0
2005-05-29,0.0,16.5,7.1
2005-05-30,0.2,18.3,8.4
2005-05-31,1.4,16.8,9.3
2005-06-01,2.6,16.6,5.0
2005-06-02,0.0,19.8,10.6
2005-06-03,2.2,18.5,9.8
2005-06-04,1.6,16.6,8.4
2005-06-05,0.0,18.4,11.7
2005-06-06,0.0,13.8,9.5
2005-06-07,0.0,17.7,0.4
2005-06-08,0.0,21.8,2.6
2005-06-09,0.0,21.5,7.9
2005-06-10,0.0,16.3,12.3
2005-06-11,0.0,14.9,3.5
2005-06-12,7.4,15.6,7.3
2005-06-13,0.0,15.3,3.4
2005-06-14,0.0,17.3,10.4
2005-06-15,0.8,19.9,10.6
2005-06-16,0.0,22.8,12.5
2005-06-17,0.0,24.4,13.5
2005-06-18,0.0,28.2,15.5
2005-06-19,0.4,30.1,16.8
2005-06-20,0.0,24.6,15.8
2005-06-21,0.0,22.0,9.8
2005-06-22,0.0,26.6,8.6
2005-06-23,2.6,28.6,11.7
2005-06-24,7.4,20.3,12.7
2005-06-25,0.0,15.8,13.6
2005-06-26,0.0,20.1,5.3
2005-06-27,0.0,25.2,5.3
2005-06-28,17.2,23.1,7.0
2005-06-29,2.8,17.6,10.5
2005-06-30,0.0,20.9,13.5
2005-07-01,0.2,21.1,10.7
2005-07-02,0.0,22.5,16.2
2005-07-03,0.0,21.0,13.8
2005-07-04,0.0,15.5,11.1
2005-07-05,4.8,16.4,8.4
2005-07-06,4.0,17.4,9.6
2005-07-07,0.0,19.6,11.8
2005-07-08,0.0,20.2,7.2
2005-07-09,0.0,24.9,10.4
2005-07-10,0.0,28.3,10.8
2005-07-11,0.0,27.1,13.9
2005-07-12,0.0,27.7,13.8
2005-07-13,0.0,28.3,13.3
2005-07-14,0.0,27.7,9.8
2005-07-15,0.0,22.9,15.3
2005-07-16,0.0,22.6,8.7
2005-07-17,0.0,26.9,9.6
2005-07-18,1.8,21.3,12.0
2005-07-19,0.0,20.2,12.1
2005-07-20,0.0,20.8,13.7
2005-07-21,0.0,20.2,11.5
2005-07-22,0.0,19.0,13.9
2005-07-23,0.0,20.6,11.9
2005-07-24,10.6,16.5,12.2
2005-07-25,0.0,15.5,10.6
2005-07-26,0.2,18.5,10.4
2005-07-27,11.0,18.9,11.9
2005-07-28,5.6,16.7,11.2
2005-07-29,0.0,19.5,12.3
2005-07-30,1.4,19.4,11.7
2005-07-31,0.0,17.5,10.8
2005-08-01,0.0,19.0,12.5
2005-08-02,0.2,24.1,9.1
2005-08-03,0.0,20.2,10.7
2005-08-04,1.6,20.9,11.9
2005-08-05,0.0,21.0,12.9
2005-08-06,0.0,19.3,10.5
2005-08-07,0.0,19.9,6.8
2005-08-08,0.0,23.6,5.2
2005-08-09,0.6,24.1,7.8
2005-08-10,0.0,22.9,12.3
2005-08-11,2.2,25.0,11.1
2005-08-12,3.2,20.6,12.9
2005-08-13,20.6,17.3,6.7
2005-08-14,0.0,19.2,10.4
2005-08-15,0.0,21.0,7.1
2005-08-16,0.0,23.9,10.0
2005-08-17,0.0,25.0,8.4
2005-08-18,34.6,25.9,9.0
2005-08-19,0.4,19.6,14.2
2005-08-20,0.0,21.4,11.1
2005-08-21,12.0,23.8,7.8
2005-08-22,2.4,17.8,11.7
2005-08-23,2.4,20.4,7.8
2005-08-24,3.2,18.4,13.9
2005-08-25,2.6,16.2,8.9
2005-08-26,0.0,16.8,8.7
2005-08-27,0.0,18.8,11.5
2005-08-28,0.0,21.9,9.2
2005-08-29,0.0,21.6,14.7
2005-08-30,0.0,25.9,9.4
2005-08-31,1.8,28.7,11.1
2005-09-01,0.0,21.2,15.2
2005-09-02,0.0,21.3,6.1
2005-09-03,0.0,22.6,7.6
2005-09-04,0.4,26.8,12.1
2005-09-05,0.0,24.3,15.2
2005-09-06,0.0,25.4,10.3
2005-09-07,0.0,21.6,11.2
2005-09-08,1.2,21.3,16.1
2005-09-09,6.0,23.0,15.6
2005-09-10,9.2,16.0,15.6
2005-09-11,0.0,16.6,12.5
2005-09-12,0.0,21.6,6.9
2005-09-13,0.0,21.8,7.6
2005-09-14,2.2,20.3,15.3
2005-09-15,11.4,14.5,9.8
2005-09-16,0.2,13.6,7.3
2005-09-17,0.0,16.0,1.1
2005-09-18,0.0,18.5,10.7
2005-09-19,0.0,18.7,12.2
2005-09-20,0.0,20.5,12.9
2005-09-21,0.0,19.1,5.5
2005-09-22,0.0,20.8,7.9
2005-09-23,1.0,18.9,12.3
2005-09-24,0.2,15.0,1.2
2005-09-25,2.2,18.6,8.1
2005-09-26,0.4,17.2,5.6
2005-09-27,0.8,17.8,11.2
2005-09-28,3.6,14.5,6.3
2005-09-29,10.0,15.1,6.6
2005-09-30,3.6,21.5,8.9
2005-10-01,0.0,13.7,8.2
2005-10-02,0.0,14.8,6.3
2005-10-03,0.0,14.0,10.5
2005-10-04,0.0,15.1,9.8
2005-10-05,0.0,14.5,4.4
2005-10-06,0.2,14.2,10.6
2005-10-07,0.0,16.6,12.1
2005-10-08,3.4,16.2,13.5
2005-10-09,0.0,14.6,3.0
2005-10-10,0.0,20.6,7.7
2005-10-11,4.6,21.1,12.5
2005-10-12,8.0,19.5,15.8
2005-10-13,0.0,14.3,11.2
2005-10-14,0.4,14.5,8.5
2005-10-15,0.2,18.2,10.8
2005-10-16,0.0,17.0,10.5
2005-10-17,0.0,13.9,10.5
2005-10-18,7.0,13.0,7.3
2005-10-19,1.4,13.7,9.6
2005-10-20,3.0,14.6,6.9
2005-10-21,10.4,15.3,8.8
2005-10-22,1.4,14.1,9.6
2005-10-23,21.2,14.3,8.3
2005-10-24,6.8,16.5,5.8
2005-10-25,0.4,15.1,11.5
2005-10-26,5.8,16.9,10.3
2005-10-27,0.0,19.5,12.9
2005-10-28,2.4,17.4,14.5
2005-10-29,0.0,17.1,10.2
2005-10-30,2.2,17.5,12.7
2005-10-31,0.6,14.2,9.9
2005-11-01,8.6,14.7,8.6
2005-11-02,1.2,18.0,7.7
2005-11-03,0.2,15.4,12.7
2005-11-04,0.6,11.6,7.8
2005-11-05,3.6,14.7,3.2
2005-11-06,5.4,14.2,5.4
2005-11-07,4.6,13.3,7.5
2005-11-08,13.0,15.6,9.1
2005-11-09,0.0,12.3,3.3
2005-11-10,0.4,15.6,2.0
2005-11-11,1.0,13.6,12.1
2005-11-12,0.4,11.2,4.4
2005-11-13,0.0,9.0,1.5
2005-11-14,0.6,11.9,-1.6
2005-11-15,0.0,11.3,2.7
2005-11-16,0.0,10.7,3.4
2005-11-17,0.0,6.2,-2.7
2005-11-18,0.2,7.1,-4.9
2005-11-19,0.0,8.2,-5.0
2005-11-20,0.0,9.3,-3.8
2005-11-21,0.2,8.2,-4.5
2005-11-22,0.0,5.2,-2.7
2005-11-23,0.0,9.3,-1.1
2005-11-24,0.8,9.4,-3.2
2005-11-25,0.8,4.4,-0.7
2005-11-26,1.4,5.6,0.3
2005-11-27,0.4,5.0,2.3
2005-11-28,3.6,3.1,1.2
2005-11-29,0.2,5.1,-1.3
2005-11-30,0.0,7.9,-4.9
2005-12-01,9.0,8.9,0.5
2005-12-02,5.2,7.9,4.6
2005-12-03,0.8,8.1,5.3
2005-12-04,0.6,7.5,2.8
2005-12-05,0.4,9.1,1.2
2005-12-06,0.2,7.5,2.5
2005-12-07,1.2,7.3,-1.9
2005-12-08,0.0,8.5,-1.2
2005-12-09,0.6,7.3,-2.9
2005-12-10,0.0,10.6,-0.2
2005-12-11,0.0,12.1,6.5
2005-12-12,0.0,7.4,3.9
2005-12-13,0.0,8.4,-1.8
2005-12-14,0.2,9.0,-1.2
2005-12-15,0.0,11.7,-0.3
2005-12-16,0.0,9.4,8.8
2005-12-17,0.0,3.0,0.8
2005-12-18,0.0,5.3,-5.8
2005-12-19,0.0,9.3,-4.3
2005-12-20,0.0,8.0,-0.2
2005-12-21,0.4,9.9,2.5
2005-12-22,0.0,9.3,0.9
2005-12-23,0.0,11.2,4.8
2005-12-24,0.0,10.2,5.2
2005-12-25,0.4,5.4,-2.9
2005-12-26,0.8,5.6,1.2
2005-12-27,0.8,1.9,-0.8
2005-12-28,2.2,0.4,-3.5
2005-12-29,1.2,1.1,-8.6
2005-12-30,5.8,4.9,-8.6
2005-12-31,0.0,8.3,0.9
2006-01-01,0.0,7.6,4.7
2006-01-02,0.2,7.0,-1.8
2006-01-03,0.0,10.2,1.1
2006-01-04,0.2,4.6,0.5
2006-01-05,0.0,3.1,1.1
2006-01-06,0.6,2.6,0.8
2006-01-07,0.6,2.8,1.2
2006-01-08,0.0,3.8,0.9
2006-01-09,0.6,6.3,1.8
2006-01-10,3.0,10.9,2.9
2006-01-11,0.0,9.0,6.0
2006-01-12,0.2,7.1,-0.4
2006-01-13,0.4,8.2,2.3
2006-01-14,0.4,8.1,5.8
2006-01-15,0.2,8.3,1.9
2006-01-16,2.8,8.5,5.5
2006-01-17,0.2,8.5,4.0
2006-01-18,1.4,10.9,4.2
2006-01-19,2.0,11.9,5.3
2006-01-20,0.0,8.2,5.7
2006-01-21,0.0,9.7,4.3
2006-01-22,0.2,6.0,-3.1
2006-01-23,0.0,2.6,-1.2
2006-01-24,0.0,5.0,0.7
2006-01-25,0.0,6.5,-4.5
2006-01-26,0.0,6.0,1.3
2006-01-27,1.4,5.4,1.3
2006-01-28,0.0,4.5,-1.9
2006-01-29,0.2,3.8,-0.8
2006-01-30,0.0,4.8,-0.1
2006-01-31,0.0,3.9,1.3
2006-02-01,0.0,-0.2,-1.3
2006-02-02,0.0,0.6,-2.7
2006-02-03,0.0,3.8,-2.4
2006-02-04,0.0,7.5,0.3
2006-02-05,0.0,7.7,-2.2
2006-02-06,0.0,9.0,1.6
2006-02-07,1.2,10.7,4.8
2006-02-08,0.0,8.2,4.2
2006-02-09,0.0,5.4,0.0
2006-02-10,0.0,5.4,0.3
2006-02-11,3.4,5.5,-4.1
2006-02-12,1.4,10.3,-0.4
2006-02-13,0.2,10.6,5.3
2006-02-14,7.2,10.8,6.3
2006-02-15,0.2,11.4,6.5
2006-02-16,0.2,8.9,3.3
2006-02-17,0.0,9.0,3.5
2006-02-18,0.2,9.4,-3.7
2006-02-19,0.0,5.0,-4.5
2006-02-20,1.0,7.5,0.3
2006-02-21,1.6,4.6,1.4
2006-02-22,2.0,3.6,1.8
2006-02-23,10.8,5.5,0.0
2006-02-24,0.0,3.7,0.2
2006-02-25,3.4,5.4,0.9
2006-02-26,0.2,5.5,2.0
2006-02-27,1.4,6.9,2.6
2006-02-28,0.0,3.8,0.3
2006-03-01,0.0,4.7,-2.9
2006-03-02,0.0,4.4,-3.7
2006-03-03,0.8,5.2,-8.9
2006-03-04,0.4,5.0,-8.4
2006-03-05,0.0,7.1,-1.0
2006-03-06,0.0,7.4,-1.6
2006-03-07,3.8,9.2,-4.9
2006-03-08,5.0,10.7,3.1
2006-03-09,0.6,9.9,5.9
2006-03-10,7.6,7.5,3.8
2006-03-11,0.0,4.7,1.8
2006-03-12,0.4,2.2,-1.8
2006-03-13,2.2,4.6,-1.3
2006-03-14,1.2,6.3,0.0
2006-03-15,0.0,11.1,1.7
2006-03-16,2.4,3.6,0.0
2006-03-17,0.2,3.4,0.3
2006-03-18,0.0,5.0,1.1
2006-03-19,0.4,6.9,1.9
2006-03-20,0.2,5.7,1.2
2006-03-21,0.0,4.9,1.2
2006-03-22,0.0,5.5,-2.5
2006-03-23,3.8,8.9,-6.4
2006-03-24,2.4,11.4,1.9
2006-03-25,1.0,14.7,4.3
2006-03-26,3.4,16.8,10.4
2006-03-27,1.4,*,11.4
2006-03-28,0.8,11.2,*
2006-03-29,8.4,12.1,*
2006-03-30,0.6,15.6,6.7
2006-03-31,0.0,14.7,9.6
2006-04-01,1.6,13.6,7.3
2006-04-02,2.6,12.0,5.5
2006-04-03,0.2,9.9,3.3
2006-04-04,0.0,6.8,1.0
2006-04-05,0.0,10.3,-4.2
2006-04-06,0.4,10.2,3.6
2006-04-07,2.4,10.2,-0.6
2006-04-08,2.2,9.3,0.9
2006-04-09,2.2,6.8,0.5
2006-04-10,0.2,9.7,-0.8
2006-04-11,0.8,12.5,-1.0
2006-04-12,0.0,12.0,0.7
2006-04-13,0.0,14.4,8.8
2006-04-14,0.0,13.5,4.5
2006-04-15,0.0,13.5,0.9
2006-04-16,0.0,14.1,6.7
2006-04-17,1.4,12.8,3.6
2006-04-18,3.6,12.3,6.3
2006-04-19,2.0,13.1,7.7
2006-04-20,11.0,12.3,2.2
2006-04-21,1.0,11.8,7.7
2006-04-22,1.2,13.0,5.2
2006-04-23,0.2,12.7,6.3
2006-04-24,0.0,12.9,-1.2
2006-04-25,0.0,17.4,7.2
2006-04-26,0.0,13.9,4.5
2006-04-27,0.0,15.0,8.3
2006-04-28,0.0,13.3,4.8
2006-04-29,0.6,12.4,5.2
2006-04-30,4.6,10.9,4.8
2006-05-01,0.0,12.0,6.7
2006-05-02,0.0,15.4,1.3
2006-05-03,0.2,19.0,9.4
2006-05-04,0.2,25.7,6.0
2006-05-05,0.0,19.4,10.4
2006-05-06,2.2,19.9,5.2
2006-05-07,2.8,14.3,10.5
2006-05-08,1.6,18.4,8.3
2006-05-09,0.0,19.5,9.2
2006-05-10,0.0,20.2,6.7
2006-05-11,0.0,22.0,2.6
2006-05-12,3.6,22.9,5.1
2006-05-13,4.2,11.0,9.4
2006-05-14,0.8,13.3,6.7
2006-05-15,7.2,15.5,8.2
2006-05-16,0.4,17.3,10.4
2006-05-17,6.0,16.8,6.5
2006-05-18,5.4,18.1,11.1
2006-05-19,8.2,15.3,10.2
2006-05-20,4.0,14.3,10.5
2006-05-21,18.0,14.0,4.6
2006-05-22,10.8,13.8,8.2
2006-05-23,10.6,13.6,4.4
2006-05-24,0.0,13.1,5.4
2006-05-25,4.4,16.2,5.0
2006-05-26,0.0,17.4,8.3
2006-05-27,0.0,17.9,9.3
2006-05-28,0.8,15.2,8.9
2006-05-29,1.0,12.6,5.7
2006-05-30,0.2,12.8,4.4
2006-05-31,0.6,15.1,4.4
2006-06-01,0.0,18.2,4.2
2006-06-02,0.0,20.8,7.5
2006-06-03,0.0,22.1,5.0
2006-06-04,0.0,21.5,5.9
2006-06-05,0.0,18.4,6.8
2006-06-06,0.0,22.0,9.4
2006-06-07,0.0,25.1,10.3
2006-06-08,0.0,24.2,6.1
2006-06-09,0.0,24.9,8.2
2006-06-10,0.0,27.1,8.0
2006-06-11,2.6,27.2,12.5
2006-06-12,1.0,27.5,14.5
2006-06-13,6.0,21.5,9.0
2006-06-14,2.2,16.0,11.8
2006-06-15,0.0,19.7,4.8
2006-06-16,0.0,22.5,8.3
2006-06-17,0.0,25.0,14.2
2006-06-18,0.0,18.5,13.9
2006-06-19,1.4,18.9,13.7
2006-06-20,1.6,20.9,9.0
2006-06-21,0.2,16.9,10.2
2006-06-22,0.0,15.4,10.7
2006-06-23,0.0,20.2,11.3
2006-06-24,0.0,20.2,11.3
2006-06-25,0.0,22.3,12.8
2006-06-26,1.6,16.5,11.8
2006-06-27,0.0,17.9,9.9
2006-06-28,0.0,20.3,12.1
2006-06-29,0.0,23.1,12.6
2006-06-30,0.0,25.8,11.0
2006-07-01,0.0,28.1,10.7
2006-07-02,0.0,29.9,11.2
2006-07-03,0.0,29.2,12.5
2006-07-04,0.0,27.9,13.5
2006-07-05,1.0,23.3,11.9
2006-07-06,0.2,26.9,16.4
2006-07-07,0.0,21.5,14.2
2006-07-08,0.2,20.5,6.2
2006-07-09,0.0,21.1,14.6
2006-07-10,0.2,22.1,8.2
2006-07-11,0.0,22.4,12.7
2006-07-12,0.0,24.7,5.7
2006-07-13,0.0,23.4,15.4
2006-07-14,0.0,21.4,4.0
2006-07-15,0.0,23.9,6.5
2006-07-16,0.0,28.5,9.6
2006-07-17,0.0,31.7,9.2
2006-07-18,0.0,30.6,9.4
2006-07-19,0.0,30.7,9.2
2006-07-20,0.0,29.2,15.8
2006-07-21,3.8,28.8,13.1
2006-07-22,15.4,27.5,16.3
2006-07-23,0.2,25.7,14.7
2006-07-24,0.0,27.5,9.8
2006-07-25,0.0,29.8,11.0
2006-07-26,0.4,30.0,15.8
2006-07-27,6.2,27.1,16.4
2006-07-28,0.0,27.3,13.0
2006-07-29,1.2,26.3,11.6
2006-07-30,0.0,23.8,14.6
2006-07-31,7.0,20.7,15.1
2006-08-01,0.0,19.7,13.1
2006-08-02,11.2,18.7,13.9
2006-08-03,0.0,20.4,12.4
2006-08-04,0.0,21.4,10.3
2006-08-05,0.0,25.0,10.8
2006-08-06,7.0,27.8,14.2
2006-08-07,0.2,21.4,14.4
2006-08-08,0.4,23.9,11.6
2006-08-09,0.0,19.7,12.9
2006-08-10,0.0,19.4,11.5
2006-08-11,0.2,19.0,10.0
2006-08-12,9.8,17.6,13.1
2006-08-13,4.6,14.9,11.3
2006-08-14,0.2,18.2,12.8
2006-08-15,0.4,18.6,9.2
2006-08-16,0.2,21.7,9.0
2006-08-17,27.8,20.7,11.7
2006-08-18,25.4,18.9,11.6
2006-08-19,5.2,20.2,8.9
2006-08-20,1.2,20.1,13.7
2006-08-21,0.8,19.0,13.1
2006-08-22,0.0,20.6,9.9
2006-08-23,8.4,19.4,12.9
2006-08-24,0.0,21.5,13.5
2006-08-25,10.0,20.3,7.0
2006-08-26,0.2,19.7,12.5
2006-08-27,4.6,19.6,12.7
2006-08-28,1.4,18.6,10.7
2006-08-29,2.6,17.6,9.6
2006-08-30,1.4,19.2,10.8
2006-08-31,2.6,20.5,12.6
2006-09-01,0.2,22.2,13.9
2006-09-02,3.8,20.6,11.7
2006-09-03,0.8,22.5,13.0
2006-09-04,2.6,20.6,12.2
2006-09-05,0.0,23.3,14.0
2006-09-06,0.0,22.3,16.0
2006-09-07,0.0,18.8,10.2
2006-09-08,0.2,18.9,4.2
2006-09-09,0.2,20.7,4.7
2006-09-10,0.0,23.0,6.1
2006-09-11,0.2,26.3,8.3
2006-09-12,0.2,22.3,14.8
2006-09-13,3.2,22.7,16.3
2006-09-14,7.6,21.7,15.1
2006-09-15,0.0,20.7,10.4
2006-09-16,0.0,19.9,14.0
2006-09-17,0.2,22.4,13.5
2006-09-18,1.8,19.5,12.1
2006-09-19,0.0,18.4,11.1
2006-09-20,0.0,20.9,9.1
2006-09-21,0.4,28.0,14.6
2006-09-22,9.6,16.8,14.4
2006-09-23,0.2,21.6,8.7
2006-09-24,0.8,21.4,13.7
2006-09-25,1.8,18.9,10.4
2006-09-26,0.0,19.8,8.8
2006-09-27,0.6,18.6,9.8
2006-09-28,0.0,19.7,14.0
2006-09-29,9.4,16.8,12.2
2006-09-30,7.2,18.0,6.3
2006-10-01,3.0,16.8,10.8
2006-10-02,0.0,17.9,12.1
2006-10-03,0.2,15.6,7.8
2006-10-04,0.0,14.6,6.5
2006-10-05,2.8,16.7,5.0
2006-10-06,5.8,17.6,11.2
2006-10-07,0.0,15.5,9.8
2006-10-08,0.0,16.2,9.0
2006-10-09,2.0,16.8,12.2
2006-10-10,0.0,16.0,4.8
2006-10-11,6.6,16.6,10.4
2006-10-12,0.2,17.1,5.7
2006-10-13,0.0,16.1,7.0
2006-10-14,0.0,16.5,10.6
2006-10-15,0.0,14.9,11.9
2006-10-16,0.0,15.3,10.6
2006-10-17,0.2,15.8,10.9
2006-10-18,3.4,14.9,10.7
2006-10-19,4.6,16.7,12.4
2006-10-20,1.0,16.5,11.1
2006-10-21,2.8,16.9,10.2
2006-10-22,8.0,14.4,9.2
2006-10-23,0.0,14.1,8.1
2006-10-24,0.0,14.4,7.5
2006-10-25,16.4,16.0,1.4
2006-10-26,0.0,16.2,5.7
2006-10-27,2.2,13.2,5.9
2006-10-28,0.0,17.2,7.8
2006-10-29,0.0,16.1,8.4
2006-10-30,0.0,18.3,9.0
2006-10-31,1.8,12.9,9.9
2006-11-01,0.0,9.1,3.6
2006-11-02,0.0,8.6,0.9
2006-11-03,0.2,11.9,-2.9
2006-11-04,0.0,11.9,-1.3
2006-11-05,0.0,13.2,6.6
2006-11-06,0.2,12.9,4.3
2006-11-07,0.2,9.8,0.7
2006-11-08,1.8,13.4,3.9
2006-11-09,0.0,10.9,3.3
2006-11-10,2.6,11.9,-1.4
2006-11-11,3.2,11.5,4.1
2006-11-12,0.6,14.1,5.8
2006-11-13,0.0,13.5,7.6
2006-11-14,2.6,12.5,7.3
2006-11-15,0.0,14.8,8.8
2006-11-16,1.0,10.2,9.6
2006-11-17,1.0,11.1,3.0
2006-11-18,0.0,9.3,3.0
2006-11-19,1.8,10.9,-0.6
2006-11-20,0.2,11.1,2.6
2006-11-21,0.2,8.2,2.1
2006-11-22,8.6,11.6,4.5
2006-11-23,0.0,11.3,5.5
2006-11-24,15.0,12.0,5.7
2006-11-25,2.4,9.9,6.0
2006-11-26,0.2,11.9,5.7
2006-11-27,0.8,13.9,7.5
2006-11-28,0.2,12.2,10.6
2006-11-29,0.0,11.8,4.6
2006-11-30,0.6,10.7,7.4
2006-12-01,0.4,12.3,8.4
2006-12-02,4.4,11.0,7.5
2006-12-03,0.0,9.7,7.3
2006-12-04,2.6,13.8,5.1
2006-12-05,5.2,11.5,6.9
2006-12-06,6.0,11.0,6.3
2006-12-07,4.8,9.3,6.0
2006-12-08,0.2,8.5,5.8
2006-12-09,0.2,7.9,1.2
2006-12-10,6.2,13.1,-1.9
2006-12-11,0.2,8.6,3.1
2006-12-12,0.4,10.0,2.8
2006-12-13,0.0,13.0,3.5
2006-12-14,4.6,13.7,9.8
2006-12-15,8.4,10.8,7.5
2006-12-16,0.4,7.8,1.1
2006-12-17,0.0,8.1,1.2
2006-12-18,0.0,5.6,-1.9
2006-12-19,0.2,7.6,1.2
2006-12-20,0.0,5.7,-2.9
2006-12-21,0.2,4.9,-5.0
2006-12-22,0.2,6.3,-4.7
2006-12-23,0.2,2.6,-4.0
2006-12-24,0.0,5.4,1.3
2006-12-25,0.0,5.4,2.1
2006-12-26,0.0,4.2,3.1
2006-12-27,0.6,7.7,3.1
2006-12-28,0.2,10.0,3.4
2006-12-29,12.2,12.9,3.0
2006-12-30,5.6,10.2,5.5
2006-12-31,4.8,11.5,5.3
